Terminal Aerodrome Forecast
Issued by NWS Jackson, MS

Home | Current Version | Previous Version | Text Only | Print | Product List | Glossary On
Versions: 1 2 3 4 5 6 7 8 9 10 11 12 13
000
FTUS44 KJAN 301720
TAFHBG
TAF
KHBG 301720Z 3018/3118 35005KT P6SM SCT040
     FM302000 33006KT P6SM VCTS SCT040 BKN060CB
     FM310100 VRB03KT P6SM FEW050 SCT070
     FM311000 VRB03KT 5SM BR FEW008 SCT060
     FM311400 VRB03KT P6SM FEW250=

USA.gov is the U.S. government's official web portal to all federal, state and local government web resources and services.